Weather History for Concordia, KS

Change the Weather History Date:

Friday, April 18, 2014

  Actual Average Record
Temperature  
Mean Temperature 51 °F 54 °F  
Max Temperature 72 °F 66 °F 92 °F (1994)
Min Temperature 30 °F 42 °F 27 °F (1953)
Degree Days  
Heating Degree Days 14 12  
Month to date heating degree days 278 256  
Since 1 July heating degree days 5556 5147  
Cooling Degree Days 0 1  
Month to date cooling degree days 8 3  
Year to date cooling degree days 8 4  
Growing Degree Days 1 (Base 50)    
Moisture  
Dew Point 36 °F    
Average Humidity 64    
Maximum Humidity 92    
Minimum Humidity 35    
Precipitation  
Precipitation 0.00 in 0.07 in 1.07 in (1970)
Month to date precipitation 0.56 1.36  
Year to date precipitation 1.98 4.74  
Snow  
Snow 0.00 in 0.10 in T in (2008)
Month to date snowfall T 0.5  
Year to date snowfall 16.9 13.7  
Since 1 July snowfall 23.2 20.2  
Snow Depth 0.00 in    
Sea Level Pressure  
Sea Level Pressure 30.18 in    
Wind  
Wind Speed 14 mph (SSE)    
Max Wind Speed 26 mph    
Max Gust Speed 37 mph    
Visibility 7 miles    
Events      
T = Trace of Precipitation, MM = Missing Value Source: NWS Daily Summary

Daily Weather History Graph

Daily Weather History Graph

Search for Another Location

Airport:

Trip Planner

Search our weather history database for the weather conditions in past years. The results will help you decide how hot, cold, wet, or windy it might be!

Date:

Astronomy

Apr. 18, 2014 Rise Set
Actual Time 6:48 AM CDT 8:11 PM CDT
Civil Twilight 6:20 AM CDT 8:39 PM CDT
Nautical Twilight 5:47 AM CDT 9:13 PM CDT
Astronomical Twilight 5:11 AM CDT 9:48 PM CDT
Moon 11:57 PM CDT (4/18) 9:12 AM CDT (4/18)
Length of Visible Light 14h 18m
Length of Day
13h 22m
Waning Gibbous, 87% of the Moon is Illuminated
Apr 18
Waning Gibbous
Apr 22
Last Quarter
Apr 29
New
May 6
First Quarter
May 14
Full

Hourly Weather History & Observations

Time (CDT) Temp. Windchill Dew Point Humidity Pressure Visibility Wind Dir Wind Speed Gust Speed Precip Events Conditions
12:55 AM 42.1 °F 35.7 °F 30.9 °F 65% 30.27 in 9.0 mi South 11.5 mph - N/A   Clear
1:55 AM 41.0 °F 33.5 °F 30.9 °F 67% 30.26 in 7.0 mi South 13.8 mph - N/A   Clear
2:55 AM 39.9 °F 31.4 °F 32.0 °F 73% 30.24 in 7.0 mi South 16.1 mph - N/A   Clear
3:55 AM 39.0 °F 31.8 °F 33.1 °F 79% 30.24 in 6.0 mi SSW 11.5 mph - N/A   Haze
4:55 AM 36.0 °F 33.3 °F 32.0 °F 86% 30.24 in 5.0 mi East 3.5 mph - N/A   Clear
5:55 AM 33.1 °F - 30.0 °F 89% 30.25 in 4.0 mi Calm Calm - N/A   Clear
6:43 AM 30.9 °F - 28.9 °F 92% 30.24 in 2.0 mi Calm Calm - N/A   Clear
6:55 AM 30.9 °F 26.2 °F 28.9 °F 92% 30.27 in 2.0 mi SSE 4.6 mph - N/A   Clear
7:11 AM 30.0 °F 24.1 °F 28.9 °F 96% 30.25 in 1.8 mi SE 5.8 mph - N/A   Clear
7:25 AM 32.0 °F 27.5 °F 28.9 °F 88% 30.25 in 2.0 mi ESE 4.6 mph - N/A   Clear
7:55 AM 35.1 °F 31.0 °F 32.0 °F 89% 30.27 in 2.5 mi SE 4.6 mph - N/A   Clear
8:12 AM 39.9 °F 35.1 °F 35.1 °F 83% 30.25 in 3.0 mi SE 6.9 mph - N/A   Haze
8:55 AM 46.9 °F - 37.0 °F 68% 30.26 in 5.0 mi SSE 12.7 mph - N/A   Haze
9:55 AM 52.0 °F - 37.0 °F 57% 30.26 in 6.0 mi SSE 17.3 mph - N/A   Haze
10:55 AM 55.9 °F - 37.0 °F 49% 30.24 in 8.0 mi SSE 16.1 mph - N/A   Clear
11:55 AM 60.1 °F - 39.0 °F 46% 30.22 in 5.0 mi SSE 15.0 mph 20.7 mph N/A   Haze
12:55 PM 64.0 °F - 42.1 °F 45% 30.19 in 8.0 mi SSE 13.8 mph 23.0 mph N/A   Clear
1:55 PM 66.0 °F - 42.1 °F 42% 30.16 in 10.0 mi South 17.3 mph 29.9 mph N/A   Clear
2:55 PM 69.1 °F - 42.1 °F 38% 30.13 in 10.0 mi South 23.0 mph 33.4 mph N/A   Clear
3:55 PM 72.0 °F - 42.1 °F 34% 30.09 in 10.0 mi SSE 24.2 mph 32.2 mph N/A   Clear
4:55 PM 72.0 °F - 42.1 °F 34% 30.07 in 10.0 mi South 21.9 mph 33.4 mph N/A   Clear
5:55 PM 70.0 °F - 41.0 °F 35% 30.06 in 10.0 mi South 20.7 mph 28.8 mph N/A   Clear
6:55 PM 68.0 °F - 42.1 °F 39% 30.06 in 10.0 mi South 19.6 mph 26.5 mph N/A   Clear
7:55 PM 66.0 °F - 42.1 °F 42% 30.05 in 10.0 mi South 17.3 mph - N/A   Clear
8:55 PM 61.0 °F - 42.1 °F 50% 30.06 in 10.0 mi South 10.4 mph - N/A   Clear
9:55 PM 57.0 °F - 41.0 °F 55% 30.08 in 10.0 mi SSE 9.2 mph - N/A   Clear
10:55 PM 57.9 °F - 42.1 °F 56% 30.06 in 10.0 mi South 10.4 mph - N/A   Clear
11:55 PM 55.9 °F - 41.0 °F 57% 30.06 in 10.0 mi SSE 12.7 mph - N/A   Clear